Flag for Germany Weather past 2 weeks in Bad Mergentheim, Baden-Württemberg, Germany

Now
41 °F

Passing clouds.


Feels Like: 31 °F
Forecast: 38 / 48 °F
Wind: 25 mph from Southwest

Location: Niederstetten

Current Time: Dec 22, 2014 at 1:06:58 AM

Latest Report: Dec 22, 2014 at 12:20 AM


Visibility: N/A

Pressure: 30.33 "Hg

Humidity: 76%

Dew point: 34 °F

Location of Bad MergentheimLocation

Historic Weather in Bad Mergentheim — Graph

°F

Bad Mergentheim temperature yesterday

Maximum temperature yesterday: 39 °F (at 12:20 PM)
Minimum temperature yesterday: 36 °F (at 1:20 AM)
Average temperature yesterday: 38 °F

Past Weeks' High & Low Weather Summary

 TemperatureHumidityPressure
High52 °F (Dec 18, 9:20 PM)100% (Dec 7, 12:20 AM)30.45 "Hg (Dec 7, 12:20 AM)
Low28 °F (Dec 9, 6:20 AM)62% (Dec 13, 11:20 AM)29.68 "Hg (Dec 12, 2:20 PM)
Average39 °F91%30.03 "Hg
* Reported Dec 6 11:20 PM — Dec 21 11:20 PM, Bad Mergentheim, Weather by CustomWeather, © 2014

Note: Actual official high and low records may vary slightly from our data, if they occured in-between our weather recording intervals... More about our weather records

Advertising

Bad Mergentheim weather history for previous 24 hours

 ConditionsComfort  
Time TempWeatherWind HumidityBarometerVisibility
11:20 PM
Dec 21
39 °FPartly cloudy.25 mph87%30.33 "HgN/A
10:20 PM39 °FPassing clouds.26 mph87%30.33 "HgN/A
10:00 PM39 °FLight rain. Passing clouds.26 mph87%30.33 "HgN/A
9:20 PM39 °FLight rain. Mostly cloudy.23 mph87%30.36 "HgN/A
8:20 PM39 °FLight rain. Mostly cloudy.21 mph87%30.39 "HgN/A
7:20 PM39 °FPassing clouds.20 mph81%30.39 "HgN/A
6:20 PM39 °FMostly cloudy.20 mph81%30.39 "HgN/A
5:20 PM39 °FMostly cloudy.18 mph81%30.39 "HgN/A
4:20 PM39 °FMore clouds than sun.16 mph87%30.39 "HgN/A
3:20 PM39 °FMostly cloudy.14 mph87%30.42 "HgN/A
2:20 PM39 °FMostly cloudy.17 mph87%30.42 "HgN/A
1:20 PM39 °FMostly cloudy.16 mph87%30.42 "HgN/A
12:20 PM39 °FMostly cloudy.14 mph87%30.45 "HgN/A
11:20 AM37 °FPartly sunny.16 mph93%30.45 "HgN/A
10:20 AM37 °FPartly sunny.13 mph93%30.45 "HgN/A
9:20 AM37 °FPartly sunny.17 mph93%30.45 "HgN/A
8:20 AM37 °FMostly cloudy.14 mph93%30.42 "HgN/A
7:20 AM36 °FPassing clouds.13 mph93%30.42 "HgN/A
6:20 AM36 °FPassing clouds.14 mph100%30.42 "HgN/A
5:20 AM36 °FPassing clouds.13 mph100%30.39 "HgN/A
4:20 AM36 °FMostly cloudy.10 mph100%30.39 "HgN/A
3:20 AM36 °FLight rain. Partly cloudy.14 mph93%30.36 "Hg5 mi
2:20 AM36 °FPartly cloudy.12 mph93%30.33 "HgN/A
1:20 AM36 °FPassing clouds.12 mph93%30.33 "HgN/A
Weather by CustomWeather, © 2014

See weather overviewHow to use our weather pages